Time,TemperatureF,DewpointF,PressureIn,WindDirection,WindDirectionDegrees,WindSpeedMPH,WindSpeedGustMPH,Humidity,HourlyPrecipIn,Conditions,Clouds,dailyrainin,SoftwareType,DateUTC
2013-03-02 00:01:00,61.0,52.0,-100.00,North,6,0.0,11.0,72,0.00,,,0.00,,2013-03-02 10:01:00,
2013-03-02 00:11:00,59.0,49.0,-100.00,South,179,0.0,6.0,69,0.00,,,0.00,,2013-03-02 10:11:00,
2013-03-02 00:32:00,59.0,49.0,-100.00,South,179,0.0,6.0,69,0.00,,,0.00,,2013-03-02 10:32:00,
2013-03-02 00:43:00,59.0,49.0,-100.00,South,179,0.0,6.0,69,0.00,,,0.00,,2013-03-02 10:43:00,
2013-03-02 00:52:00,59.0,49.0,-100.00,South,179,0.0,6.0,69,0.00,,,0.00,,2013-03-02 10:52:00,
2013-03-02 01:01:00,59.0,49.0,-100.00,South,179,0.0,6.0,69,0.00,,,0.00,,2013-03-02 11:01:00,
2013-03-02 01:11:00,61.0,51.0,-100.00,NNE,33,0.0,8.0,70,0.00,,,0.00,,2013-03-02 11:11:00,
2013-03-02 01:32:00,61.0,51.0,-100.00,NNE,33,0.0,8.0,70,0.00,,,0.00,,2013-03-02 11:32:00,
2013-03-02 01:42:00,61.0,51.0,-100.00,NNE,33,0.0,8.0,70,0.00,,,0.00,,2013-03-02 11:42:00,
2013-03-02 01:52:00,61.0,51.0,-100.00,NNE,33,0.0,8.0,70,0.00,,,0.00,,2013-03-02 11:52:00,
2013-03-02 02:02:00,61.0,51.0,-100.00,NNE,33,0.0,8.0,70,0.00,,,0.00,,2013-03-02 12:02:00,
2013-03-02 02:11:00,61.0,53.0,-100.00,ENE,67,0.0,6.0,75,0.00,,,0.00,,2013-03-02 12:11:00,
2013-03-02 02:33:00,61.0,53.0,-100.00,ENE,67,0.0,6.0,75,0.00,,,0.00,,2013-03-02 12:33:00,
2013-03-02 02:43:00,61.0,53.0,-100.00,ENE,67,0.0,6.0,75,0.00,,,0.00,,2013-03-02 12:43:00,
2013-03-02 02:53:00,61.0,53.0,-100.00,ENE,67,0.0,6.0,75,0.00,,,0.00,,2013-03-02 12:53:00,
2013-03-02 03:01:00,61.0,53.0,-100.00,ENE,67,0.0,6.0,75,0.00,,,0.00,,2013-03-02 13:01:00,
2013-03-02 03:11:00,60.0,55.0,-100.00,NE,47,0.0,5.0,83,0.00,,,0.00,,2013-03-02 13:11:00,
2013-03-02 03:42:00,60.0,55.0,-100.00,NE,47,0.0,5.0,83,0.00,,,0.00,,2013-03-02 13:42:00,
2013-03-02 03:52:00,60.0,55.0,-100.00,NE,47,0.0,5.0,83,0.00,,,0.00,,2013-03-02 13:52:00,
2013-03-02 04:01:00,60.0,55.0,-100.00,NE,47,0.0,5.0,83,0.00,,,0.00,,2013-03-02 14:01:00,
2013-03-02 04:11:00,62.0,54.0,-100.00,NE,53,0.0,7.0,75,0.00,,,0.00,,2013-03-02 14:11:00,
2013-03-02 04:32:00,62.0,54.0,-100.00,NE,53,0.0,7.0,75,0.00,,,0.00,,2013-03-02 14:32:00,
2013-03-02 04:42:00,62.0,54.0,-100.00,NE,53,0.0,7.0,75,0.00,,,0.00,,2013-03-02 14:42:00,
2013-03-02 04:52:00,62.0,54.0,-100.00,NE,53,0.0,7.0,75,0.00,,,0.00,,2013-03-02 14:52:00,
2013-03-02 05:01:00,62.0,54.0,-100.00,NE,53,0.0,7.0,75,0.00,,,0.00,,2013-03-02 15:01:00,
2013-03-02 05:11:00,62.0,51.0,-100.00,SSE,152,2.0,11.0,68,0.00,,,0.00,,2013-03-02 15:11:00,
2013-03-02 05:32:00,62.0,51.0,-100.00,SSE,152,2.0,11.0,68,0.00,,,0.00,,2013-03-02 15:32:00,
2013-03-02 05:42:00,62.0,51.0,-100.00,SSE,152,2.0,11.0,68,0.00,,,0.00,,2013-03-02 15:42:00,
2013-03-02 05:52:00,62.0,51.0,-100.00,SSE,152,2.0,11.0,68,0.00,,,0.00,,2013-03-02 15:52:00,
2013-03-02 06:01:00,62.0,51.0,-100.00,SSE,152,2.0,11.0,68,0.00,,,0.00,,2013-03-02 16:01:00,
2013-03-02 06:11:00,61.0,52.0,-100.00,WSW,255,0.0,8.0,71,0.00,,,0.00,,2013-03-02 16:11:00,
2013-03-02 06:32:00,61.0,52.0,-100.00,WSW,255,0.0,8.0,71,0.00,,,0.00,,2013-03-02 16:32:00,
2013-03-02 06:42:00,61.0,52.0,-100.00,WSW,255,0.0,8.0,71,0.00,,,0.00,,2013-03-02 16:42:00,
2013-03-02 06:52:00,61.0,52.0,-100.00,WSW,255,0.0,8.0,71,0.00,,,0.00,,2013-03-02 16:52:00,
2013-03-02 07:01:00,61.0,52.0,-100.00,WSW,255,0.0,8.0,71,0.00,,,0.00,,2013-03-02 17:01:00,
2013-03-02 07:11:00,60.0,52.0,-100.00,SSW,202,0.0,5.0,74,0.00,,,0.00,,2013-03-02 17:11:00,
2013-03-02 07:32:00,60.0,52.0,-100.00,SSW,202,0.0,5.0,74,0.00,,,0.00,,2013-03-02 17:32:00,
2013-03-02 07:42:00,60.0,52.0,-100.00,SSW,202,0.0,5.0,74,0.00,,,0.00,,2013-03-02 17:42:00,
2013-03-02 07:52:00,60.0,52.0,-100.00,SSW,202,0.0,5.0,74,0.00,,,0.00,,2013-03-02 17:52:00,
2013-03-02 08:01:00,60.0,52.0,-100.00,SSW,202,0.0,5.0,74,0.00,,,0.00,,2013-03-02 18:01:00,
2013-03-02 08:11:00,64.0,48.0,-100.00,East,85,1.0,7.0,56,0.00,,,0.00,,2013-03-02 18:11:00,
2013-03-02 08:32:00,64.0,48.0,-100.00,East,85,1.0,7.0,56,0.00,,,0.00,,2013-03-02 18:32:00,
2013-03-02 08:42:00,64.0,48.0,-100.00,East,85,1.0,7.0,56,0.00,,,0.00,,2013-03-02 18:42:00,
2013-03-02 08:52:00,64.0,48.0,-100.00,East,85,1.0,7.0,56,0.00,,,0.00,,2013-03-02 18:52:00,
2013-03-02 09:01:00,64.0,48.0,-100.00,East,85,1.0,7.0,56,0.00,,,0.00,,2013-03-02 19:01:00,
2013-03-02 09:11:00,69.0,53.0,-100.00,SSE,166,0.0,14.0,56,0.00,,,0.00,,2013-03-02 19:11:00,
2013-03-02 09:42:00,69.0,53.0,-100.00,SSE,166,0.0,14.0,56,0.00,,,0.00,,2013-03-02 19:42:00,
2013-03-02 09:52:00,69.0,53.0,-100.00,SSE,166,0.0,14.0,56,0.00,,,0.00,,2013-03-02 19:52:00,
2013-03-02 10:01:00,69.0,53.0,-100.00,SSE,166,0.0,14.0,56,0.00,,,0.00,,2013-03-02 20:01:00,
2013-03-02 10:11:00,71.0,54.0,-100.00,NNW,329,1.0,6.0,55,0.00,,,0.00,,2013-03-02 20:11:00,
2013-03-02 10:32:00,71.0,54.0,-100.00,NNW,329,1.0,6.0,55,0.00,,,0.00,,2013-03-02 20:32:00,
2013-03-02 10:42:00,71.0,54.0,-100.00,NNW,329,1.0,6.0,55,0.00,,,0.00,,2013-03-02 20:42:00,
2013-03-02 10:52:00,71.0,54.0,-100.00,NNW,329,1.0,6.0,55,0.00,,,0.00,,2013-03-02 20:52:00,
2013-03-02 11:02:00,71.0,54.0,-100.00,NNW,329,1.0,6.0,55,0.00,,,0.00,,2013-03-02 21:02:00,
2013-03-02 11:11:00,72.0,54.0,-100.00,SW,225,3.0,9.0,54,0.00,,,0.00,,2013-03-02 21:11:00,
2013-03-02 11:32:00,72.0,54.0,-100.00,SW,225,3.0,9.0,54,0.00,,,0.00,,2013-03-02 21:32:00,
2013-03-02 11:42:00,72.0,54.0,-100.00,SW,225,3.0,9.0,54,0.00,,,0.00,,2013-03-02 21:42:00,
2013-03-02 11:52:00,72.0,54.0,-100.00,SW,225,3.0,9.0,54,0.00,,,0.00,,2013-03-02 21:52:00,
2013-03-02 12:01:00,72.0,54.0,-100.00,SW,225,3.0,9.0,54,0.00,,,0.00,,2013-03-02 22:01:00,
2013-03-02 12:11:00,75.0,55.0,-100.00,SW,224,4.0,8.0,50,0.00,,,0.00,,2013-03-02 22:11:00,
2013-03-02 12:42:00,75.0,55.0,-100.00,SW,224,4.0,8.0,50,0.00,,,0.00,,2013-03-02 22:42:00,
2013-03-02 12:52:00,75.0,55.0,-100.00,SW,224,4.0,8.0,50,0.00,,,0.00,,2013-03-02 22:52:00,
2013-03-02 13:01:00,75.0,55.0,-100.00,SW,224,4.0,8.0,50,0.00,,,0.00,,2013-03-02 23:01:00,
2013-03-02 13:11:00,74.0,54.0,-100.00,NE,39,3.0,10.0,49,0.00,,,0.00,,2013-03-02 23:11:00,
2013-03-02 13:32:00,74.0,54.0,-100.00,NE,39,3.0,10.0,49,0.00,,,0.00,,2013-03-02 23:32:00,
2013-03-02 13:42:00,74.0,54.0,-100.00,NE,39,3.0,10.0,49,0.00,,,0.00,,2013-03-02 23:42:00,
2013-03-02 13:52:00,74.0,54.0,-100.00,NE,39,3.0,10.0,49,0.00,,,0.00,,2013-03-02 23:52:00,
2013-03-02 14:02:00,74.0,54.0,-100.00,NE,39,3.0,10.0,49,0.00,,,0.00,,2013-03-03 00:02:00,
2013-03-02 14:11:00,79.0,56.0,-100.00,West,261,3.0,10.0,45,0.00,,,0.00,,2013-03-03 00:11:00,
2013-03-02 14:32:00,79.0,56.0,-100.00,West,261,3.0,10.0,45,0.00,,,0.00,,2013-03-03 00:32:00,
2013-03-02 14:42:00,79.0,56.0,-100.00,West,261,3.0,10.0,45,0.00,,,0.00,,2013-03-03 00:42:00,
2013-03-02 14:52:00,79.0,56.0,-100.00,West,261,3.0,10.0,45,0.00,,,0.00,,2013-03-03 00:52:00,
2013-03-02 15:01:00,79.0,56.0,-100.00,West,261,3.0,10.0,45,0.00,,,0.00,,2013-03-03 01:01:00,
2013-03-02 15:11:00,80.0,57.0,-100.00,North,358,0.0,7.0,46,0.00,,,0.00,,2013-03-03 01:11:00,
2013-03-02 15:32:00,80.0,57.0,-100.00,North,358,0.0,7.0,46,0.00,,,0.00,,2013-03-03 01:32:00,
2013-03-02 15:42:00,80.0,57.0,-100.00,North,358,0.0,7.0,46,0.00,,,0.00,,2013-03-03 01:42:00,
2013-03-02 15:52:00,80.0,57.0,-100.00,North,358,0.0,7.0,46,0.00,,,0.00,,2013-03-03 01:52:00,
2013-03-02 16:01:00,80.0,57.0,-100.00,North,358,0.0,7.0,46,0.00,,,0.00,,2013-03-03 02:01:00,
2013-03-02 16:11:00,79.0,56.0,-100.00,NNW,327,0.0,6.0,46,0.00,,,0.00,,2013-03-03 02:11:00,
2013-03-02 16:32:00,79.0,56.0,-100.00,NNW,327,0.0,6.0,46,0.00,,,0.00,,2013-03-03 02:32:00,
2013-03-02 16:42:00,79.0,56.0,-100.00,NNW,327,0.0,6.0,46,0.00,,,0.00,,2013-03-03 02:42:00,
2013-03-02 16:52:00,79.0,56.0,-100.00,NNW,327,0.0,6.0,46,0.00,,,0.00,,2013-03-03 02:52:00,
2013-03-02 17:01:00,79.0,56.0,-100.00,NNW,327,0.0,6.0,46,0.00,,,0.00,,2013-03-03 03:01:00,
2013-03-02 17:11:00,77.0,57.0,-100.00,SSE,163,2.0,13.0,50,0.00,,,0.00,,2013-03-03 03:11:00,
2013-03-02 17:32:00,77.0,57.0,-100.00,SSE,163,2.0,13.0,50,0.00,,,0.00,,2013-03-03 03:32:00,
2013-03-02 17:42:00,77.0,57.0,-100.00,SSE,163,2.0,13.0,50,0.00,,,0.00,,2013-03-03 03:42:00,
2013-03-02 17:52:00,77.0,57.0,-100.00,SSE,163,2.0,13.0,50,0.00,,,0.00,,2013-03-03 03:52:00,
2013-03-02 18:01:00,77.0,57.0,-100.00,SSE,163,2.0,13.0,50,0.00,,,0.00,,2013-03-03 04:01:00,
2013-03-02 18:11:00,68.0,55.0,-100.00,NNE,19,0.0,6.0,64,0.00,,,0.00,,2013-03-03 04:11:00,
2013-03-02 18:32:00,68.0,55.0,-100.00,NNE,19,0.0,6.0,64,0.00,,,0.00,,2013-03-03 04:32:00,
2013-03-02 18:42:00,68.0,55.0,-100.00,NNE,19,0.0,6.0,64,0.00,,,0.00,,2013-03-03 04:42:00,
2013-03-02 18:52:00,68.0,55.0,-100.00,NNE,19,0.0,6.0,64,0.00,,,0.00,,2013-03-03 04:52:00,
2013-03-02 19:01:00,68.0,55.0,-100.00,NNE,19,0.0,6.0,64,0.00,,,0.00,,2013-03-03 05:01:00,
2013-03-02 19:11:00,64.0,52.0,-100.00,ENE,73,1.0,9.0,64,0.00,,,0.00,,2013-03-03 05:11:00,
2013-03-02 19:32:00,64.0,52.0,-100.00,ENE,73,1.0,9.0,64,0.00,,,0.00,,2013-03-03 05:32:00,
2013-03-02 19:42:00,64.0,52.0,-100.00,ENE,73,1.0,9.0,64,0.00,,,0.00,,2013-03-03 05:42:00,
2013-03-02 19:52:00,64.0,52.0,-100.00,ENE,73,1.0,9.0,64,0.00,,,0.00,,2013-03-03 05:52:00,
2013-03-02 20:01:00,64.0,52.0,-100.00,ENE,73,1.0,9.0,64,0.00,,,0.00,,2013-03-03 06:01:00,
2013-03-02 20:11:00,61.0,54.0,-100.00,NE,35,2.0,7.0,77,0.00,,,0.00,,2013-03-03 06:11:00,
2013-03-02 20:32:00,61.0,54.0,-100.00,NE,35,2.0,7.0,77,0.00,,,0.00,,2013-03-03 06:32:00,
2013-03-02 20:42:00,61.0,54.0,-100.00,NE,35,2.0,7.0,77,0.00,,,0.00,,2013-03-03 06:42:00,
2013-03-02 20:52:00,61.0,54.0,-100.00,NE,35,2.0,7.0,77,0.00,,,0.00,,2013-03-03 06:52:00,
2013-03-02 21:01:00,61.0,54.0,-100.00,NE,35,2.0,7.0,77,0.00,,,0.00,,2013-03-03 07:01:00,
2013-03-02 21:11:00,61.0,51.0,-100.00,ENE,69,1.0,7.0,70,0.00,,,0.00,,2013-03-03 07:11:00,
2013-03-02 21:32:00,61.0,51.0,-100.00,ENE,69,1.0,7.0,70,0.00,,,0.00,,2013-03-03 07:32:00,
2013-03-02 21:42:00,61.0,51.0,-100.00,ENE,69,1.0,7.0,70,0.00,,,0.00,,2013-03-03 07:42:00,
2013-03-02 21:52:00,61.0,51.0,-100.00,ENE,69,1.0,7.0,70,0.00,,,0.00,,2013-03-03 07:52:00,
2013-03-02 22:01:00,61.0,51.0,-100.00,ENE,69,1.0,7.0,70,0.00,,,0.00,,2013-03-03 08:01:00,
2013-03-02 22:11:00,60.0,50.0,-100.00,NNE,19,1.0,10.0,69,0.00,,,0.00,,2013-03-03 08:11:00,
2013-03-02 22:32:00,60.0,50.0,-100.00,NNE,19,1.0,10.0,69,0.00,,,0.00,,2013-03-03 08:32:00,
2013-03-02 22:42:00,60.0,50.0,-100.00,NNE,19,1.0,10.0,69,0.00,,,0.00,,2013-03-03 08:42:00,
2013-03-02 22:54:00,60.0,50.0,-100.00,NNE,19,1.0,10.0,69,0.00,,,0.00,,2013-03-03 08:54:00,
2013-03-02 23:01:00,60.0,50.0,-100.00,NNE,19,1.0,10.0,69,0.00,,,0.00,,2013-03-03 09:01:00,
2013-03-02 23:11:00,59.0,48.0,-100.00,North,11,2.0,7.0,67,0.00,,,0.00,,2013-03-03 09:11:00,
2013-03-02 23:32:00,59.0,48.0,-100.00,North,11,2.0,7.0,67,0.00,,,0.00,,2013-03-03 09:32:00,
2013-03-02 23:42:00,59.0,48.0,-100.00,North,11,2.0,7.0,67,0.00,,,0.00,,2013-03-03 09:42:00,
2013-03-02 23:52:00,59.0,48.0,-100.00,North,11,2.0,7.0,67,0.00,,,0.00,,2013-03-03 09:52:00,